Location: Stara Lesna
(49.1528°N, 20.2911°E)
Time: 00:37:13
(UTC+02:00)

Atlas Centaur 2 - Pass Details

Date: 21 September 2019
Orbit: 459 x 1311 km, 30.4° (Epoch: 20 October)

Event Time Altitude Azimuth Distance (km) Brightness Sun altitude
Exits shadow 04:26:19 11° 190° (S) 2,692 4.5 -19.3°
Maximum altitude 04:26:23 11° 190° (S) 2,694 4.5 -19.3°
Drops below altitude 10° 04:28:19 10° 173° (S) 2,871 4.8 -19.0°
Sets 04:33:49 0° 143° (SE) 4,043 5.9 -18.2°
